Tracking 29594 objects as of 21-Sep-2024
HD Live streaming from Space Station
objects crossing your sky now

SL-3 R/B

Track SL-3 R/B now!
10-day predictions


NORAD ID: 7210
Int'l Code: 1974-011B
Perigee: 796.3 km
Apogee: 913.4 km
Inclination: 81.2 °
Period: 101.9 minutes
Semi major axis: 7225 km
RCS: 6.5263 m2 (large)
Launch date: March 5, 1974
Source: Commonwealth of Independent States (former USSR) (CIS)
Launch site: PLESETSK MISSILE AND SPACE COMPLEX (PKMTR)

Note: This is a ROCKET BODY
Your satellite tracking list
Your tracking list is empty




NASA's NSSDC Master Catalog

Two Line Element Set (TLE):
1 07210U 74011B   24264.45404997  .00000230  00000-0  11189-3 0  9991
2 07210  81.2380 330.2450 0081035  35.3026 325.3474 14.13425999604316
Source of the keplerian elements: AFSPC